#timestamp,LO_Frequency,Hit,Temp,Hum 
1487847615.1,286047017.5,N,0.0,0.0
1487847635.9,286047019.5,N,0.0,0.0
1487847655.7,286047020.6,N,0.0,0.0
1487847675.5,286047023.5,N,0.0,0.0
1487847695.4,286047022.3,N,0.0,0.0
1487847715.2,286047024.0,N,0.0,0.0
1487847735.0,286047022.9,N,0.0,0.0
1487847735.9,286047022.9,N,0.0,0.0
1487847755.8,286047026.8,Y,0.0,0.0
1487847775.6,286047003.8,N,0.0,0.0
1487847795.4,286047003.5,N,0.0,0.0
1487847815.3,286046999.4,N,0.0,0.0
1487847835.1,286047000.0,N,0.0,0.0
1487847855.8,286047002.8,N,0.0,0.0
1487847875.1,286047001.4,N,0.0,0.0
1487847876.0,286047001.4,N,0.0,0.0
1487847895.8,286047003.9,N,0.0,0.0
1487847915.6,286047003.7,N,0.0,0.0
1487847935.5,286046997.5,N,0.0,0.0
1487847955.3,286047008.7,N,0.0,0.0
1487847975.1,286047005.8,N,0.0,0.0
1487847995.9,286047005.0,N,0.0,0.0
1487848015.7,286047007.3,N,0.0,0.0
1487848035.5,286047005.0,N,0.0,0.0
1487848055.4,286047010.0,N,0.0,0.0
1487848075.2,286047010.0,N,0.0,0.0
1487848095.0,286047006.1,N,0.0,0.0
1487848095.9,286047006.1,N,0.0,0.0
1487848115.8,286047008.9,N,0.0,0.0
1487848135.6,286047008.5,N,0.0,0.0
1487848155.4,286047012.0,N,0.0,0.0
1487848175.3,286047009.4,N,0.0,0.0
1487848195.1,286047007.9,N,0.0,0.0
1487848196.0,286047007.9,N,0.0,0.0
1487848215.8,286047008.7,N,0.0,0.0
1487848235.7,286047010.3,N,0.0,0.0
1487848255.5,286047012.3,N,0.0,0.0
1487848275.3,286047012.4,N,0.0,0.0
1487848295.2,286047009.3,N,0.0,0.0
1487848315.9,286047011.6,N,0.0,0.0
1487848335.7,286047011.2,N,0.0,0.0
1487848355.5,286047015.0,N,0.0,0.0
1487848375.4,286047012.8,N,0.0,0.0
1487848395.2,286047013.2,N,0.0,0.0
1487848415.0,286047014.9,N,0.0,0.0
1487848415.9,286047014.9,N,0.0,0.0
1487848435.8,286047013.3,N,0.0,0.0
1487848455.6,286047015.1,N,0.0,0.0
1487848475.4,286047017.1,N,0.0,0.0
1487848495.3,286047014.5,N,0.0,0.0
1487848515.1,286047011.0,N,0.0,0.0
1487848535.8,286047015.0,N,0.0,0.0
1487848555.7,286047016.2,N,0.0,0.0
1487848575.5,286047014.9,N,0.0,0.0
1487848595.3,286047017.2,N,0.0,0.0
1487848615.2,286047014.7,N,0.0,0.0
1487848635.9,286047016.8,N,0.0,0.0
1487848655.7,286047017.6,N,0.0,0.0
1487848675.6,286047017.4,N,0.0,0.0
1487848695.4,286047018.5,N,0.0,0.0
1487848715.2,286047018.1,N,0.0,0.0
1487848735.1,286047020.1,Y,0.0,0.0
1487848736.0,286047020.1,Y,0.0,0.0
1487848755.8,286046994.7,N,0.0,0.0
1487848775.6,286046994.6,N,0.0,0.0
1487848795.5,286046996.2,N,0.0,0.0
1487848815.3,286046995.2,N,0.0,0.0
1487848835.1,286046993.9,N,0.0,0.0
1487848855.9,286046994.7,N,0.0,0.0
1487848875.7,286046993.4,N,0.0,0.0
1487848895.5,286046996.0,N,0.0,0.0
1487848915.4,286046998.0,N,0.0,0.0
1487848935.2,286046994.9,N,0.0,0.0
1487848955.0,286046993.4,N,0.0,0.0
1487848955.9,286046993.4,N,0.0,0.0
1487848975.8,286046996.1,N,0.0,0.0
1487848995.6,286046995.6,N,0.0,0.0
1487849015.4,286046997.5,N,0.0,0.0
1487849035.3,286046997.3,N,0.0,0.0
1487849055.1,286046997.2,N,0.0,0.0
1487849056.0,286046997.2,N,0.0,0.0
1487849075.8,286046997.3,N,0.0,0.0
1487849095.7,286046997.1,N,0.0,0.0
1487849115.5,286046997.7,N,0.0,0.0
1487849135.3,286046997.4,N,0.0,0.0
1487849155.1,286046996.9,N,0.0,0.0
1487849175.9,286046997.2,N,0.0,0.0
1487849195.7,286046996.6,N,0.0,0.0
1487849215.5,286046995.3,N,0.0,0.0
1487849235.4,286046995.7,N,0.0,0.0
1487849255.2,286046995.9,N,0.0,0.0
1487849275.0,286046995.3,N,0.0,0.0
1487849275.9,286046995.3,N,0.0,0.0
1487849295.8,286046996.0,N,0.0,0.0
1487849315.6,286046994.5,N,0.0,0.0
1487849335.4,286046993.5,N,0.0,0.0
1487849355.3,286046990.5,N,0.0,0.0
1487849375.1,286046989.5,N,0.0,0.0
1487849395.8,286046991.3,N,0.0,0.0
1487849415.7,286046988.7,N,0.0,0.0
1487849435.5,286046987.8,N,0.0,0.0
1487849455.3,286046987.9,N,0.0,0.0
1487849475.2,286046989.8,N,0.0,0.0
1487849495.9,286046991.5,N,0.0,0.0
1487849515.7,286046990.3,N,0.0,0.0
1487849535.6,286046991.1,N,0.0,0.0
1487849555.4,286046988.9,N,0.0,0.0
1487849575.8,286046989.9,N,0.0,0.0
1487849595.7,286046988.4,N,0.0,0.0
1487849615.5,286046987.2,N,0.0,0.0
1487849635.3,286046985.4,N,0.0,0.0
1487849655.2,286046984.4,N,0.0,0.0
1487849675.0,286046979.1,N,0.0,0.0
1487849675.9,286046979.1,N,0.0,0.0
1487849695.7,286046977.8,N,0.0,0.0
1487849715.6,286046976.7,N,0.0,0.0
1487849735.4,286046973.2,N,0.0,0.0
1487849755.2,286046972.7,N,0.0,0.0
1487849775.7,286046974.5,N,0.0,0.0
1487849795.5,286046974.9,N,0.0,0.0
1487849815.4,286046972.6,N,0.0,0.0
1487849835.2,286046972.2,N,0.0,0.0
1487849855.0,286046970.4,N,0.0,0.0
1487849855.9,286046970.4,N,0.0,0.0
1487849875.8,286046968.8,N,0.0,0.0
1487849895.6,286046966.5,N,0.0,0.0
1487849915.4,286046966.4,N,0.0,0.0
1487849935.3,286046966.0,N,0.0,0.0
1487849955.1,286046965.6,N,0.0,0.0
1487849956.0,286046965.6,N,0.0,0.0
1487849975.8,286046963.0,N,0.0,0.0
1487849995.7,286046961.6,N,0.0,0.0
1487850015.5,286046961.7,N,0.0,0.0
1487850035.3,286046963.0,N,0.0,0.0
1487850055.2,286046962.3,N,0.0,0.0
1487850075.9,286046960.2,N,0.0,0.0
1487850095.7,286046958.4,N,0.0,0.0
1487850115.6,286046960.0,N,0.0,0.0
1487850135.4,286046958.6,N,0.0,0.0
1487850155.2,286046958.3,N,0.0,0.0
1487850175.0,286046959.3,N,0.0,0.0
1487850176.0,286046959.3,N,0.0,0.0
1487850195.8,286046959.3,N,0.0,0.0
1487850215.6,286046957.3,N,0.0,0.0
1487850235.4,286046959.2,N,0.0,0.0
1487850255.3,286046957.7,N,0.0,0.0
1487850275.1,286046955.1,N,0.0,0.0
1487850295.8,286046954.4,N,0.0,0.0
1487850315.7,286046952.0,N,0.0,0.0
1487850335.5,286046951.3,N,0.0,0.0
1487850355.3,286046949.7,N,0.0,0.0
1487850375.2,286046949.9,N,0.0,0.0
1487850395.9,286046949.8,N,0.0,0.0
1487850415.7,286046950.7,N,0.0,0.0
1487850435.6,286046951.6,N,0.0,0.0
1487850455.4,286046949.0,N,0.0,0.0
1487850475.2,286046945.7,N,0.0,0.0
1487850495.1,286046945.8,N,0.0,0.0
1487850496.0,286046945.8,N,0.0,0.0
1487850515.8,286046946.3,N,0.0,0.0
1487850535.6,286046944.8,N,0.0,0.0
1487850555.5,286046944.0,Y,0.0,0.0
1487850575.3,286046966.1,N,0.0,0.0
1487850595.1,286046970.8,N,0.0,0.0
1487850615.9,286046968.5,N,0.0,0.0
1487850635.7,286046968.8,N,0.0,0.0
1487850655.5,286046966.7,N,0.0,0.0
1487850675.4,286046968.9,N,0.0,0.0
1487850695.2,286046964.6,N,0.0,0.0
1487850715.0,286046963.1,N,0.0,0.0
1487850715.9,286046963.1,N,0.0,0.0
1487850735.8,286046961.7,N,0.0,0.0
1487850755.6,286046963.9,N,0.0,0.0
1487850775.4,286046960.1,N,0.0,0.0
1487850795.3,286046961.4,N,0.0,0.0
1487850815.1,286046962.0,N,0.0,0.0
1487850816.0,286046962.0,N,0.0,0.0
1487850835.8,286046960.0,N,0.0,0.0
1487850855.7,286046959.8,N,0.0,0.0
1487850875.5,286046961.0,N,0.0,0.0
1487850895.3,286046961.0,N,0.0,0.0
1487850915.1,286046960.1,N,0.0,0.0
1487850935.9,286046960.9,N,0.0,0.0
1487850955.7,286046958.7,N,0.0,0.0
1487850975.5,286046959.1,N,0.0,0.0
1487850995.4,286046959.2,N,0.0,0.0
1487851015.2,286046958.9,N,0.0,0.0
1487851035.0,286046956.6,N,0.0,0.0
1487851035.9,286046956.6,N,0.0,0.0
1487851055.8,286046955.2,Y,0.0,0.0
1487851075.6,286046985.3,N,0.0,0.0
1487851095.4,286046982.3,N,0.0,0.0
1487851115.3,286046984.8,N,0.0,0.0
1487851135.1,286046982.1,N,0.0,0.0
1487851155.8,286046984.3,N,0.0,0.0
1487851175.7,286046984.4,N,0.0,0.0
1487851195.5,286046985.0,N,0.0,0.0
